TimeEDT,TemperatureF,Dew PointF,Humidity,Sea Level PressureIn,VisibilityMPH,Wind Direction,Wind SpeedMPH,Gust SpeedMPH,PrecipitationIn,Events,Conditions,WindDirDegrees,DateUTC
12:35 AM,66.2,66.2,100,29.90,7.0,Calm,Calm,-,N/A,,Overcast,0,2012-10-03 04:35:00
12:53 AM,66.9,66.0,97,29.88,8.0,Calm,Calm,-,N/A,,Overcast,0,2012-10-03 04:53:00
1:01 AM,66.2,66.2,100,29.89,4.0,Calm,Calm,-,N/A,,Mostly Cloudy,0,2012-10-03 05:01:00
1:18 AM,66.2,66.2,100,29.90,2.0,Calm,Calm,-,N/A,,Mostly Cloudy,0,2012-10-03 05:18:00
1:35 AM,66.2,64.4,94,29.90,1.0,Calm,Calm,-,N/A,,Overcast,0,2012-10-03 05:35:00
1:53 AM,66.0,66.0,100,29.89,0.8,Calm,Calm,-,N/A,,Overcast,0,2012-10-03 05:53:00
2:07 AM,66.2,64.4,94,29.92,1.2,SE,4.6,-,N/A,,Overcast,140,2012-10-03 06:07:00
2:11 AM,66.2,66.2,100,29.91,3.0,SSE,3.5,-,N/A,,Overcast,150,2012-10-03 06:11:00
2:20 AM,66.2,66.2,100,29.92,2.5,SSE,3.5,-,N/A,,Overcast,150,2012-10-03 06:20:00
2:30 AM,66.2,66.2,100,29.92,1.2,SE,4.6,-,N/A,,Overcast,140,2012-10-03 06:30:00
2:44 AM,66.2,66.2,100,29.93,3.0,Calm,Calm,-,N/A,,Overcast,0,2012-10-03 06:44:00
2:53 AM,66.0,66.0,100,29.91,3.0,Calm,Calm,-,N/A,,Overcast,0,2012-10-03 06:53:00
3:02 AM,66.2,64.4,94,29.93,4.0,Calm,Calm,-,N/A,,Overcast,0,2012-10-03 07:02:00
3:53 AM,66.9,64.9,93,29.94,10.0,Calm,Calm,-,N/A,,Overcast,0,2012-10-03 07:53:00
4:53 AM,66.0,64.0,93,29.96,10.0,Variable,3.5,-,N/A,,Overcast,0,2012-10-03 08:53:00
5:53 AM,64.9,63.0,93,29.99,9.0,Calm,Calm,-,N/A,,Overcast,0,2012-10-03 09:53:00
6:10 AM,64.4,62.6,94,30.01,9.0,WSW,3.5,-,N/A,,Overcast,250,2012-10-03 10:10:00
6:53 AM,64.9,62.1,90,30.02,9.0,Variable,4.6,-,N/A,,Overcast,0,2012-10-03 10:53:00
7:28 AM,64.4,60.8,88,30.04,9.0,Calm,Calm,-,N/A,,Mostly Cloudy,0,2012-10-03 11:28:00
7:53 AM,64.0,62.1,93,30.04,8.0,Variable,3.5,-,N/A,,Overcast,0,2012-10-03 11:53:00
8:01 AM,64.4,60.8,88,30.05,7.0,WSW,3.5,-,N/A,,Overcast,240,2012-10-03 12:01:00
8:24 AM,64.4,62.6,94,30.06,5.0,Calm,Calm,-,N/A,,Mostly Cloudy,0,2012-10-03 12:24:00
8:53 AM,66.0,62.1,87,30.06,7.0,Calm,Calm,-,N/A,,Clear,0,2012-10-03 12:53:00
9:17 AM,66.2,62.6,88,30.07,8.0,Calm,Calm,-,N/A,,Partly Cloudy,0,2012-10-03 13:17:00
9:53 AM,68.0,62.1,81,30.07,10.0,SE,8.1,-,N/A,,Clear,140,2012-10-03 13:53:00
11:53 AM,70.0,57.9,65,30.07,10.0,SW,5.8,-,N/A,,Scattered Clouds,220,2012-10-03 15:53:00
12:53 PM,71.1,55.9,59,30.07,10.0,SW,10.4,-,N/A,,Mostly Cloudy,220,2012-10-03 16:53:00
1:53 PM,71.1,55.9,59,30.07,10.0,SSW,9.2,16.1,N/A,,Partly Cloudy,210,2012-10-03 17:53:00
2:53 PM,72.0,54.0,53,30.07,10.0,SW,11.5,20.7,N/A,,Partly Cloudy,220,2012-10-03 18:53:00
3:53 PM,73.9,52.0,46,30.07,10.0,Variable,5.8,18.4,N/A,,Clear,0,2012-10-03 19:53:00
4:53 PM,73.0,51.1,46,30.07,10.0,Variable,5.8,-,N/A,,Clear,0,2012-10-03 20:53:00
5:53 PM,69.1,53.1,57,30.09,10.0,West,3.5,-,N/A,,Clear,260,2012-10-03 21:53:00
6:53 PM,66.0,55.0,68,30.10,10.0,Calm,Calm,-,N/A,,Clear,0,2012-10-03 22:53:00
7:53 PM,62.1,55.9,80,30.12,10.0,Calm,Calm,-,N/A,,Clear,0,2012-10-03 23:53:00
8:53 PM,60.1,55.9,86,30.12,10.0,Calm,Calm,-,N/A,,Clear,0,2012-10-04 00:53:00
9:53 PM,59.0,55.9,90,30.14,10.0,Calm,Calm,-,N/A,,Clear,0,2012-10-04 01:53:00
10:53 PM,57.9,55.0,90,30.15,10.0,Calm,Calm,-,N/A,,Clear,0,2012-10-04 02:53:00
11:53 PM,55.9,55.0,97,30.17,6.0,Calm,Calm,-,N/A,,Clear,0,2012-10-04 03:53:00